Hourly Data Report for September 28, 2016

SHEARWATER RCS
NOVA SCOTIA

44°37'47.000" N
63°30'48.000" W
24.00 m
8205092
71264
AAW

Download Data

Hourly Data (September 2016)
Hourly Data Report for September 28, 2016
TIME Temp Definition
°C
Dew Point Definition
°C
Rel Hum Definition
%
Wind Dir Definition
10's deg

Wind Spd Definition
km/h
Visibility Definition
km
Stn Press Definition
kPa
Hmdx Definition


Wind Chill Definition


Weather Definition


00:00 11.3 9.9 91 3 19   101.47     LegendNANA
01:00 11.2 10.1 93 1 12   101.58     LegendNANA
02:00 11.2 10.1 93 2 15   101.61     LegendNANA
03:00 11.4 10.3 93 3 14   101.70     LegendNANA
04:00 11.2 10.1 93 3 15   101.74     LegendNANA
05:00 11.0 9.7 92 4 17   101.79     LegendNANA
06:00 11.0 9.5 91 3 13   101.91     LegendNANA
07:00 10.7 9.1 90 3 14   102.05     LegendNANA
08:00 10.6 9.2 91 3 15   102.13     LegendNANA
09:00 11.4 9.2 87 3 18   102.17     LegendNANA
10:00 12.6 9.9 84 3 15   102.25     LegendNANA
11:00 13.6 10.0 79 3 14   102.29     LegendNANA
12:00 13.9 10.3 79 2 14   102.33     LegendNANA
13:00 14.0 10.3 78 2 13   102.33     LegendNANA
14:00 14.2 10.2 77 2 14   102.35     LegendNANA
15:00 14.7 10.4 75 3 14   102.40     LegendNANA
16:00 14.4 10.6 78 2 13   102.41     LegendNANA
17:00 13.9 10.5 80 1 12   102.42     LegendNANA
18:00 13.4 10.3 81 2 13   102.44     LegendNANA
19:00 13.0 9.9 81 2 13   102.50     LegendNANA
20:00 12.8 9.5 80 2 14   102.53     LegendNANA
21:00 12.6 9.6 82 2 14   102.55     LegendNANA
22:00 12.5 9.8 84 2 14   102.53     LegendNANA
23:00 12.4 10.0 85 2 15   102.52     LegendNANA

Notes on Data Quality.

Legend

  • E = Estimated
  • M = Missing
  • NA = Not Available*
  • [empty] = Indicates an unobserved value
Date modified: